AirNav   ATP
 
 513 users online  

83XS Ball Park Heliport
Houston, Texas, USA

GOING TO HOUSTON?


FAA INFORMATION EFFECTIVE 04 JANUARY 2018

Location

FAA Identifier: 83XS
Lat/Long: 29-40-28.8350N / 095-37-05.8040W
29-40.480583N / 095-37.096733W
29.6746764 / -95.6182789
(estimated)
Elevation: 90 ft. / 27 m (estimated)
Variation: 06E (1985)
From city: 14 miles SW of HOUSTON, TX
Time zone: UTC -6 (UTC -5 during Daylight Saving Time)
Zip code: 77083

Heliport Operations

Heliport use: Private use. Permission required prior to landing
Activation date: 05/1979
Control tower: no
ARTCC: HOUSTON CENTER
FSS: MONTGOMERY COUNTY FLIGHT SERVICE STATION
FOR FP FILING CALL CXO FSS 1-800-833-5602.
Attendance: 0700-1700
Wind indicator: no
Segmented circle: no

Heliport Communications

WX ASOS at SGR (4 nm SW): 118.125 (281-242-7605)
WX AWOS-3 at AXH (13 nm SE): 123.625 (281-431-6572)
WX AWOS-3 at TME (17 nm NW): 119.525 (281-945-5451)
WX ASOS at HOU (18 nm E): PHONE 713-847-1462

Nearby radio navigation aids

VOR radial/distance  VOR name  Freq  Var
HUBr269/17.8HOBBY VOR/DME117.1005E
IAHr215/22.1HUMBLE VORTAC116.6005E
ELAr081/36.4EAGLE LAKE VOR/DME116.4008E

 
NDB name  Hdg/Dist  Freq  Var  ID
NIXIN223/28.432605EBVP -... ...- .--.
SANJAC266/28.634705EJPA .--- .--. .-
WHARTON042/37.624506EARM .- .-. --

Heliport Services

Runway Information

Helipad H1

Dimensions: 25 x 25 ft. / 8 x 8 m
LNDG & TKOFF 180' X 120'.
Surface: concrete
Traffic pattern: leftleft

Heliport Ownership and Management from official FAA records

Ownership: Privately-owned
Owner: PARK & SMYERS CONST INC
13301 OLD RICHMOND ROAD
HOUSTON, TX 77099
Phone 713-933-9870
Manager: PARK & SMYERS CONST INC
13301 OLD RICHMOND ROAD
HOUSTON, TX 77099
Phone 713-933-9870

Heliport Operational Statistics

Aircraft based on the field: 1
Helicopters: 1
    

Additional Remarks

A52-H1 PLINES 100' TO NORTH OF PAD.

Instrument Procedures

There are no published instrument procedures at 83XS.

Some nearby airports with instrument procedures:

KSGR - Sugar Land Regional Airport (4 nm SW)
KIWS - West Houston Airport (9 nm N)
KAXH - Houston Southwest Airport (13 nm SE)
KTME - Houston Executive Airport (17 nm NW)
KHOU - William P Hobby Airport (18 nm E)
 
Loc | Ops | Rwys | IFR | FBO | Links
Com | Nav | Svcs | Stats | Notes


 
Area around 83XS (Ball Park Heliport)
 
Road maps at: MapQuest Bing Google
 
Aerial photo
No photo
 
Sectional chart

 
Airport distance calculator
Flying to Ball Park Heliport? Find the distance to fly.

From to 83XS

Sunrise and sunset
Times for 20-Jan-2018
 Local
(UTC-6)
 Zulu
(UTC)
Morning civil twilight06:5312:53
Sunrise07:1813:18
Sunset17:4923:49
Evening civil twilight18:1400:14

Current date and time
Zulu (UTC)  20-Jan-2018 12:48:34
Local (UTC-6)  20-Jan-2018 06:48:34
 
METAR
KSGR 
4nm SW 
201239Z 00000KT 1 1/4SM BR OVC003 12/12 A3008 RMK AO2 RAB06E18 P0000 T01170117
KAXH 
13nm SE 
201235Z AUTO 00000KT 1/4SM FG OVC002 10/10 A3009 RMK AO2 T00980098
KTME 
17nm NW 
201235Z AUTO 14003KT 1/4SM FG OVC002 12/12 A3008 RMK AO2
KHOU 
18nm E 
201153Z 09004KT 1/4SM FG VV003 11/11 A3008 RMK AO2 SLP189 60000 70024 T01060106 10111 20106 58007
TAF
KSGR 
4nm SW 
201132Z 2012/2112 10003KT 2SM BR VCSH BKN004 OVC040 TEMPO 2012/2014 1/4SM FG VV002 FM201500 18007KT 6SM BR VCSH BKN007 OVC011 FM201800 18010G20KT P6SM VCSH SCT008 OVC015 FM210000 15010KT 4SM BR OVC007 FM210500 16011KT 2SM BR OVC003
KHOU 
18nm E 
201132Z 2012/2112 07003KT 2SM BR VCSH OVC004 TEMPO 2012/2014 1/4SM FG VV002 FM201500 18007KT 6SM BR VCSH BKN007 OVC011 FM201800 18010G19KT P6SM VCSH SCT008 OVC015 FM210000 16008KT 6SM BR VCSH OVC007 FM210400 16008KT 3SM BR VCSH OVC005
NOTAMs
Click for the latest NOTAMs
NOTAMs are issued by the DoD/FAA and will open in a separate window not controlled by AirNav.

 

 
 

Would you like to see your business listed on this page?

 If your business provides an interesting product or service to pilots, flight crews, aircraft, or users of the Ball Park Heliport, you should consider listing it here.  To start the listing process, click on the button below
 
Add a business
 

Other Pages about Ball Park Heliport

Update a link
 
Copyright © AirNav, LLC. All rights reserved. Privacy Policy  Contact